Location: ??
(35.3149°N, 139.6204°E)
Time: 11:06:43
(UTC+00:00)

Timation 2 Rocket - Pass Details

Date: 03 August 2024
Orbit: 906 x 1073 km, 70.0° (Epoch: 09 September)

Event Time Altitude Azimuth Distance (km) Brightness Sun altitude
Rises 17:47:05 0° 335° (NNW) 3,553 7.2 -22.4°
Reaches altitude 10° 17:49:34 10° 334° (NNW) 2,619 6.4 -22.0°
Maximum altitude 17:55:36 76° 250° (WSW) 971 3.8 -21.1°
Drops below altitude 10° 18:01:50 10° 165° (SSE) 2,701 6.1 -20.2°
Sets 18:04:26 0° 164° (SSE) 3,670 6.8 -19.8°
